Time,TemperatureF,DewpointF,PressureIn,WindDirection,WindDirectionDegrees,WindSpeedMPH,WindSpeedGustMPH,Humidity,HourlyPrecipIn,Conditions,Clouds,dailyrainin,SoftwareType,DateUTC
2013-03-27 00:04:00,54.7,44.4,29.98,NE,45,0.0,0.0,68,0.00,,,0.00,WUHU216HW,2013-03-27 07:04:00,
2013-03-27 00:09:00,54.7,44.4,29.98,NNE,23,0.4,0.4,68,0.00,,,0.00,WUHU216HW,2013-03-27 07:09:00,
2013-03-27 00:14:00,54.5,44.2,29.98,NNE,23,0.0,0.4,68,0.00,,,0.00,WUHU216HW,2013-03-27 07:14:00,
2013-03-27 00:19:00,54.5,44.2,29.98,NNE,23,0.0,0.4,68,0.00,,,0.00,WUHU216HW,2013-03-27 07:19:00,
2013-03-27 00:24:00,54.4,44.0,29.98,NNE,23,0.0,0.4,68,0.00,,,0.00,WUHU216HW,2013-03-27 07:24:00,
2013-03-27 00:29:00,54.4,44.0,29.98,NNE,23,0.0,0.0,68,0.00,,,0.00,WUHU216HW,2013-03-27 07:29:00,
2013-03-27 00:34:00,54.2,43.8,29.98,NNE,23,0.0,0.0,68,0.00,,,0.00,WUHU216HW,2013-03-27 07:34:00,
2013-03-27 00:39:00,54.0,44.1,29.97,NE,45,0.0,0.0,69,0.00,,,0.00,WUHU216HW,2013-03-27 07:39:00,
2013-03-27 00:44:00,54.0,44.1,29.98,NE,45,0.0,0.0,69,0.00,,,0.00,WUHU216HW,2013-03-27 07:44:00,
2013-03-27 00:49:00,53.8,43.9,29.98,NE,45,0.0,0.0,69,0.00,,,0.00,WUHU216HW,2013-03-27 07:49:00,
2013-03-27 00:54:00,53.6,43.8,29.97,NE,45,0.4,0.4,69,0.00,,,0.00,WUHU216HW,2013-03-27 07:54:00,
2013-03-27 00:59:00,53.6,43.8,29.97,NE,45,0.0,0.4,69,0.00,,,0.00,WUHU216HW,2013-03-27 07:59:00,
2013-03-27 01:04:00,53.6,44.1,29.97,NE,45,0.0,0.4,70,0.00,,,0.00,WUHU216HW,2013-03-27 08:04:00,
2013-03-27 01:09:00,53.6,44.1,29.97,NE,45,0.4,0.4,70,0.00,,,0.00,WUHU216HW,2013-03-27 08:09:00,
2013-03-27 01:14:00,53.5,43.9,29.96,NE,45,0.2,0.4,70,0.00,,,0.00,WUHU216HW,2013-03-27 08:14:00,
2013-03-27 01:19:00,53.5,43.9,29.97,NE,45,0.0,0.4,70,0.00,,,0.00,WUHU216HW,2013-03-27 08:19:00,
2013-03-27 01:24:00,53.5,43.9,29.97,NE,45,0.0,0.2,70,0.00,,,0.00,WUHU216HW,2013-03-27 08:24:00,
2013-03-27 01:29:00,53.5,44.3,29.96,NE,45,0.0,0.0,71,0.00,,,0.00,WUHU216HW,2013-03-27 08:29:00,
2013-03-27 01:34:00,53.3,44.1,29.96,NE,45,0.0,0.2,71,0.00,,,0.00,WUHU216HW,2013-03-27 08:34:00,
2013-03-27 01:39:00,53.3,44.1,29.96,NE,45,0.0,0.2,71,0.00,,,0.00,WUHU216HW,2013-03-27 08:39:00,
2013-03-27 01:44:00,53.3,44.1,29.97,NE,45,0.0,0.0,71,0.00,,,0.00,WUHU216HW,2013-03-27 08:44:00,
2013-03-27 01:49:00,53.3,44.1,29.96,NE,45,0.0,0.0,71,0.00,,,0.00,WUHU216HW,2013-03-27 08:49:00,
2013-03-27 01:54:00,53.1,44.0,29.96,NE,45,0.0,0.0,71,0.00,,,0.00,WUHU216HW,2013-03-27 08:54:00,
2013-03-27 01:59:00,52.9,43.8,29.96,NE,45,0.7,0.7,71,0.00,,,0.00,WUHU216HW,2013-03-27 08:59:00,
2013-03-27 02:04:00,52.9,43.8,29.96,NE,45,0.0,0.7,71,0.00,,,0.00,WUHU216HW,2013-03-27 09:04:00,
2013-03-27 02:09:00,52.9,43.8,29.96,NE,45,0.0,0.0,71,0.00,,,0.00,WUHU216HW,2013-03-27 09:09:00,
2013-03-27 02:14:00,52.7,43.7,29.96,NE,45,0.0,0.0,71,0.00,,,0.00,WUHU216HW,2013-03-27 09:14:00,
2013-03-27 02:19:00,52.6,43.5,29.96,NE,45,0.0,0.0,71,0.00,,,0.00,WUHU216HW,2013-03-27 09:19:00,
2013-03-27 02:24:00,52.6,43.5,29.96,NE,45,0.4,0.4,71,0.00,,,0.00,WUHU216HW,2013-03-27 09:24:00,
2013-03-27 02:29:00,52.4,43.7,29.95,NE,45,0.0,0.4,72,0.00,,,0.00,WUHU216HW,2013-03-27 09:29:00,
2013-03-27 02:34:00,52.2,43.5,29.95,NE,45,1.1,1.1,72,0.00,,,0.00,WUHU216HW,2013-03-27 09:34:00,
2013-03-27 02:39:00,52.2,43.5,29.95,NE,45,0.0,1.1,72,0.00,,,0.00,WUHU216HW,2013-03-27 09:39:00,
2013-03-27 02:44:00,52.0,43.3,29.96,NE,45,0.7,1.1,72,0.00,,,0.00,WUHU216HW,2013-03-27 09:44:00,
2013-03-27 02:49:00,52.0,43.0,29.95,NE,45,0.0,0.7,71,0.00,,,0.00,WUHU216HW,2013-03-27 09:49:00,
2013-03-27 02:54:00,51.8,42.9,29.95,NE,45,0.0,0.7,71,0.00,,,0.00,WUHU216HW,2013-03-27 09:54:00,
2013-03-27 02:59:00,51.8,42.9,29.95,NE,45,0.0,0.0,71,0.00,,,0.00,WUHU216HW,2013-03-27 09:59:00,
2013-03-27 03:04:00,51.7,42.7,29.95,NE,45,0.2,0.2,71,0.00,,,0.00,WUHU216HW,2013-03-27 10:04:00,
2013-03-27 03:09:00,51.7,43.0,29.95,NE,45,0.0,0.2,72,0.00,,,0.00,WUHU216HW,2013-03-27 10:09:00,
2013-03-27 03:14:00,51.5,42.9,29.95,NE,45,0.0,0.2,72,0.00,,,0.00,WUHU216HW,2013-03-27 10:14:00,
2013-03-27 03:19:00,51.5,42.9,29.95,NE,45,0.4,0.4,72,0.00,,,0.00,WUHU216HW,2013-03-27 10:19:00,
2013-03-27 03:24:00,51.5,42.9,29.95,NE,45,0.0,0.4,72,0.00,,,0.00,WUHU216HW,2013-03-27 10:24:00,
2013-03-27 03:29:00,51.3,42.7,29.95,NE,45,0.9,0.9,72,0.00,,,0.00,WUHU216HW,2013-03-27 10:29:00,
2013-03-27 03:34:00,51.3,42.7,29.95,SE,135,1.1,1.1,72,0.00,,,0.00,WUHU216HW,2013-03-27 10:34:00,
2013-03-27 03:39:00,51.3,42.7,29.95,East,90,0.4,1.1,72,0.00,,,0.00,WUHU216HW,2013-03-27 10:39:00,
2013-03-27 03:44:00,51.3,42.7,29.95,East,90,0.0,0.7,72,0.00,,,0.00,WUHU216HW,2013-03-27 10:44:00,
2013-03-27 03:49:00,51.3,42.7,29.95,NNE,23,0.0,0.7,72,0.00,,,0.00,WUHU216HW,2013-03-27 10:49:00,
2013-03-27 03:54:00,51.3,42.7,29.95,NNE,23,0.2,0.2,72,0.00,,,0.00,WUHU216HW,2013-03-27 10:54:00,
2013-03-27 03:59:00,51.1,42.5,29.95,NNE,23,0.0,0.2,72,0.00,,,0.00,WUHU216HW,2013-03-27 10:59:00,
2013-03-27 04:04:00,51.1,42.8,29.95,NNE,23,0.7,0.7,73,0.00,,,0.00,WUHU216HW,2013-03-27 11:04:00,
2013-03-27 04:09:00,51.1,42.8,29.95,NNE,23,0.0,0.7,73,0.00,,,0.00,WUHU216HW,2013-03-27 11:09:00,
2013-03-27 04:14:00,51.1,42.8,29.95,NNE,23,0.0,0.7,73,0.00,,,0.00,WUHU216HW,2013-03-27 11:14:00,
2013-03-27 04:19:00,50.9,42.6,29.95,NNE,23,0.9,0.9,73,0.00,,,0.00,WUHU216HW,2013-03-27 11:19:00,
2013-03-27 04:24:00,50.9,42.6,29.95,NNE,23,0.0,0.9,73,0.00,,,0.00,WUHU216HW,2013-03-27 11:24:00,
2013-03-27 04:29:00,50.9,42.6,29.94,NNE,23,0.0,0.9,73,0.00,,,0.00,WUHU216HW,2013-03-27 11:29:00,
2013-03-27 04:34:00,50.9,42.6,29.94,NNE,23,0.0,0.0,73,0.00,,,0.00,WUHU216HW,2013-03-27 11:34:00,
2013-03-27 04:39:00,50.9,42.9,29.94,East,90,1.1,1.1,74,0.00,,,0.00,WUHU216HW,2013-03-27 11:39:00,
2013-03-27 04:44:00,50.8,42.8,29.94,ENE,68,0.0,1.1,74,0.00,,,0.00,WUHU216HW,2013-03-27 11:44:00,
2013-03-27 04:49:00,50.8,42.8,29.94,ENE,68,0.4,1.1,74,0.00,,,0.00,WUHU216HW,2013-03-27 11:49:00,
2013-03-27 04:54:00,50.8,42.8,29.94,East,90,0.0,0.4,74,0.00,,,0.00,WUHU216HW,2013-03-27 11:54:00,
2013-03-27 04:59:00,50.8,42.8,29.94,East,90,0.7,0.7,74,0.00,,,0.00,WUHU216HW,2013-03-27 11:59:00,
2013-03-27 05:04:00,50.6,42.6,29.94,NE,45,0.7,1.1,74,0.00,,,0.00,WUHU216HW,2013-03-27 12:04:00,
2013-03-27 05:09:00,50.6,42.6,29.94,NE,45,0.0,1.1,74,0.00,,,0.00,WUHU216HW,2013-03-27 12:09:00,
2013-03-27 05:14:00,50.6,42.6,29.94,SSW,203,0.9,0.9,74,0.00,,,0.00,WUHU216HW,2013-03-27 12:14:00,
2013-03-27 05:19:00,50.6,42.6,29.94,SSW,203,0.0,0.9,74,0.00,,,0.00,WUHU216HW,2013-03-27 12:19:00,
2013-03-27 05:24:00,50.4,42.8,29.94,SSW,203,0.0,0.9,75,0.00,,,0.00,WUHU216HW,2013-03-27 12:24:00,
2013-03-27 05:29:00,50.4,42.8,29.94,SSW,203,0.0,0.0,75,0.00,,,0.00,WUHU216HW,2013-03-27 12:29:00,
2013-03-27 05:34:00,50.4,42.4,29.94,SSW,203,0.0,0.0,74,0.00,,,0.00,WUHU216HW,2013-03-27 12:34:00,
2013-03-27 05:39:00,50.2,42.6,29.94,SSW,203,0.4,0.4,75,0.00,,,0.00,WUHU216HW,2013-03-27 12:39:00,
2013-03-27 05:45:00,50.2,42.6,29.95,SSW,203,0.0,0.4,75,0.00,,,0.00,WUHU216HW,2013-03-27 12:45:00,
2013-03-27 05:50:00,50.2,42.6,29.95,SSE,158,0.0,0.4,75,0.00,,,0.00,WUHU216HW,2013-03-27 12:50:00,
2013-03-27 05:55:00,50.2,42.6,29.94,SSE,158,0.0,0.0,75,0.00,,,0.00,WUHU216HW,2013-03-27 12:55:00,
2013-03-27 06:00:00,50.2,42.6,29.94,SSE,158,0.0,0.0,75,0.00,,,0.00,WUHU216HW,2013-03-27 13:00:00,
2013-03-27 06:05:00,50.2,42.6,29.95,SSE,158,0.0,0.0,75,0.00,,,0.00,WUHU216HW,2013-03-27 13:05:00,
2013-03-27 06:10:00,50.2,42.9,29.94,East,90,0.7,0.7,76,0.00,,,0.00,WUHU216HW,2013-03-27 13:10:00,
2013-03-27 06:15:00,50.2,42.9,29.94,East,90,0.4,0.7,76,0.00,,,0.00,WUHU216HW,2013-03-27 13:15:00,
2013-03-27 06:20:00,50.2,42.9,29.94,ENE,68,0.0,0.4,76,0.00,,,0.00,WUHU216HW,2013-03-27 13:20:00,
2013-03-27 06:25:00,50.2,42.9,29.94,ENE,68,0.2,0.4,76,0.00,,,0.00,WUHU216HW,2013-03-27 13:25:00,
2013-03-27 06:30:00,50.2,42.9,29.94,ENE,68,0.0,0.2,76,0.00,,,0.00,WUHU216HW,2013-03-27 13:30:00,
2013-03-27 06:35:00,50.4,43.1,29.95,East,90,0.0,0.0,76,0.00,,,0.00,WUHU216HW,2013-03-27 13:35:00,
2013-03-27 06:40:00,50.2,42.9,29.95,East,90,0.0,0.0,76,0.00,,,0.00,WUHU216HW,2013-03-27 13:40:00,
2013-03-27 06:45:00,50.2,43.3,29.95,NE,45,0.4,0.4,77,0.00,,,0.00,WUHU216HW,2013-03-27 13:45:00,
2013-03-27 06:50:00,50.2,43.3,29.95,NE,45,0.2,0.4,77,0.00,,,0.00,WUHU216HW,2013-03-27 13:50:00,
2013-03-27 06:55:00,50.2,43.3,29.95,NE,45,0.0,0.4,77,0.00,,,0.00,WUHU216HW,2013-03-27 13:55:00,
2013-03-27 07:00:00,50.2,43.3,29.95,SE,135,1.1,1.1,77,0.00,,,0.00,WUHU216HW,2013-03-27 14:00:00,
2013-03-27 07:05:00,50.2,43.3,29.95,ENE,68,1.3,1.3,77,0.00,,,0.00,WUHU216HW,2013-03-27 14:05:00,
2013-03-27 07:10:00,50.4,43.5,29.95,NE,45,1.3,1.3,77,0.00,,,0.00,WUHU216HW,2013-03-27 14:10:00,
2013-03-27 07:15:00,50.4,43.7,29.95,NNE,23,1.1,1.3,78,0.00,,,0.00,WUHU216HW,2013-03-27 14:15:00,
2013-03-27 07:20:00,50.4,43.7,29.96,NE,45,1.1,1.3,78,0.00,,,0.00,WUHU216HW,2013-03-27 14:20:00,
2013-03-27 07:25:00,50.4,43.7,29.96,NE,45,0.4,1.1,78,0.00,,,0.00,WUHU216HW,2013-03-27 14:25:00,
2013-03-27 07:30:00,50.6,43.9,29.96,NE,45,1.1,1.1,78,0.00,,,0.00,WUHU216HW,2013-03-27 14:30:00,
2013-03-27 07:35:00,50.8,44.1,29.96,ENE,68,1.1,1.1,78,0.00,,,0.00,WUHU216HW,2013-03-27 14:35:00,
2013-03-27 07:40:00,50.8,44.1,29.96,NNE,23,1.8,1.8,78,0.00,,,0.00,WUHU216HW,2013-03-27 14:40:00,
2013-03-27 07:45:00,50.8,44.1,29.96,NNE,23,0.7,1.8,78,0.00,,,0.00,WUHU216HW,2013-03-27 14:45:00,
2013-03-27 07:50:00,50.8,44.1,29.97,ENE,68,0.7,1.8,78,0.00,,,0.00,WUHU216HW,2013-03-27 14:50:00,
2013-03-27 07:55:00,50.9,44.3,29.97,NNE,23,1.6,1.6,78,0.00,,,0.00,WUHU216HW,2013-03-27 14:55:00,
2013-03-27 08:00:00,51.1,44.5,29.97,ESE,113,0.7,1.6,78,0.00,,,0.00,WUHU216HW,2013-03-27 15:00:00,
2013-03-27 08:05:00,51.1,44.5,29.97,NE,45,2.5,2.5,78,0.00,,,0.00,WUHU216HW,2013-03-27 15:05:00,
2013-03-27 08:10:00,51.3,45.0,29.97,NE,45,1.1,2.5,79,0.00,,,0.00,WUHU216HW,2013-03-27 15:10:00,
2013-03-27 08:15:00,51.5,44.8,29.97,ENE,68,2.0,2.0,78,0.00,,,0.00,WUHU216HW,2013-03-27 15:15:00,
2013-03-27 08:20:00,51.5,44.8,29.97,NE,45,2.0,2.2,78,0.00,,,0.00,WUHU216HW,2013-03-27 15:20:00,
2013-03-27 08:25:00,51.5,44.8,29.97,NNE,23,1.1,2.2,78,0.00,,,0.00,WUHU216HW,2013-03-27 15:25:00,
2013-03-27 08:30:00,51.8,45.2,29.97,NE,45,0.7,2.5,78,0.00,,,0.00,WUHU216HW,2013-03-27 15:30:00,
2013-03-27 08:35:00,51.8,45.5,29.97,ENE,68,1.8,2.5,79,0.00,,,0.00,WUHU216HW,2013-03-27 15:35:00,
2013-03-27 08:40:00,52.2,45.5,29.97,ENE,68,1.1,1.8,78,0.00,,,0.00,WUHU216HW,2013-03-27 15:40:00,
2013-03-27 08:45:00,52.2,45.5,29.97,East,90,0.4,1.8,78,0.00,,,0.00,WUHU216HW,2013-03-27 15:45:00,
2013-03-27 08:50:00,52.4,46.1,29.97,East,90,1.1,1.1,79,0.00,,,0.00,WUHU216HW,2013-03-27 15:50:00,
2013-03-27 08:55:00,52.7,46.4,29.97,ESE,113,2.0,2.0,79,0.00,,,0.00,WUHU216HW,2013-03-27 15:55:00,
2013-03-27 09:00:00,52.9,46.6,29.97,ENE,68,1.6,2.0,79,0.00,,,0.00,WUHU216HW,2013-03-27 16:00:00,
2013-03-27 09:05:00,53.3,46.6,29.97,SSE,158,1.1,2.0,78,0.00,,,0.00,WUHU216HW,2013-03-27 16:05:00,
2013-03-27 09:10:00,53.6,47.0,29.97,SE,135,0.9,1.8,78,0.00,,,0.00,WUHU216HW,2013-03-27 16:10:00,
2013-03-27 09:15:00,53.6,47.0,29.97,SSE,158,0.0,0.9,78,0.00,,,0.00,WUHU216HW,2013-03-27 16:15:00,
2013-03-27 09:20:00,53.8,47.2,29.97,SSW,203,0.7,0.9,78,0.00,,,0.00,WUHU216HW,2013-03-27 16:20:00,
2013-03-27 09:25:00,54.0,47.0,29.97,NNE,23,1.1,1.1,77,0.00,,,0.00,WUHU216HW,2013-03-27 16:25:00,
2013-03-27 09:30:00,54.5,47.4,29.97,SSE,158,1.8,1.8,77,0.00,,,0.00,WUHU216HW,2013-03-27 16:30:00,
2013-03-27 09:35:00,54.7,47.6,29.97,SE,135,0.7,1.8,77,0.00,,,0.00,WUHU216HW,2013-03-27 16:35:00,
2013-03-27 09:40:00,55.1,48.0,29.97,SSE,158,1.3,1.8,77,0.00,,,0.00,WUHU216HW,2013-03-27 16:40:00,
2013-03-27 09:45:00,55.4,48.3,29.97,ESE,113,1.1,1.3,77,0.00,,,0.00,WUHU216HW,2013-03-27 16:45:00,
2013-03-27 09:50:00,55.8,48.3,29.97,SE,135,1.3,1.3,76,0.00,,,0.00,WUHU216HW,2013-03-27 16:50:00,
2013-03-27 09:55:00,56.3,48.8,29.97,SSE,158,0.7,1.3,76,0.00,,,0.00,WUHU216HW,2013-03-27 16:55:00,
2013-03-27 10:00:00,56.7,48.8,29.97,SSE,158,1.1,1.1,75,0.00,,,0.00,WUHU216HW,2013-03-27 17:00:00,
2013-03-27 10:05:00,57.1,49.1,29.97,SSW,203,1.1,1.1,75,0.00,,,0.00,WUHU216HW,2013-03-27 17:05:00,
2013-03-27 10:10:00,57.8,49.5,29.98,SE,135,2.7,2.7,74,0.00,,,0.00,WUHU216HW,2013-03-27 17:10:00,
2013-03-27 10:15:00,58.0,49.7,29.98,SE,135,2.5,2.7,74,0.00,,,0.00,WUHU216HW,2013-03-27 17:15:00,
2013-03-27 10:20:00,58.3,50.0,29.98,SW,225,1.6,2.7,74,0.00,,,0.00,WUHU216HW,2013-03-27 17:20:00,
2013-03-27 10:25:00,58.9,50.2,29.97,WNW,293,0.2,2.5,73,0.00,,,0.00,WUHU216HW,2013-03-27 17:25:00,
2013-03-27 10:30:00,59.0,50.4,29.98,ESE,113,1.1,1.1,73,0.00,,,0.00,WUHU216HW,2013-03-27 17:30:00,
2013-03-27 10:35:00,59.4,50.8,29.98,SW,225,1.6,1.6,73,0.00,,,0.00,WUHU216HW,2013-03-27 17:35:00,
2013-03-27 10:40:00,59.8,51.1,29.98,WNW,293,2.0,2.0,73,0.00,,,0.00,WUHU216HW,2013-03-27 17:40:00,
2013-03-27 10:45:00,59.8,50.8,29.98,SW,225,1.3,2.0,72,0.00,,,0.00,WUHU216HW,2013-03-27 17:45:00,
2013-03-27 10:50:00,60.1,51.1,29.98,NW,315,0.9,2.9,72,0.00,,,0.00,WUHU216HW,2013-03-27 17:50:00,
2013-03-27 10:55:00,60.5,51.1,29.98,North,0,1.1,2.9,71,0.00,,,0.00,WUHU216HW,2013-03-27 17:55:00,
2013-03-27 11:00:00,60.7,50.9,29.97,West,270,1.8,1.8,70,0.00,,,0.00,WUHU216HW,2013-03-27 18:00:00,
2013-03-27 11:05:00,60.8,51.1,29.97,WSW,248,1.1,1.8,70,0.00,,,0.00,WUHU216HW,2013-03-27 18:05:00,
2013-03-27 11:10:00,61.4,51.6,29.98,SSW,203,1.8,1.8,70,0.00,,,0.00,WUHU216HW,2013-03-27 18:10:00,
2013-03-27 11:15:00,61.7,51.9,29.98,NW,315,1.1,1.8,70,0.00,,,0.00,WUHU216HW,2013-03-27 18:15:00,
2013-03-27 11:20:00,61.9,51.7,29.98,WSW,248,1.1,1.8,69,0.00,,,0.00,WUHU216HW,2013-03-27 18:20:00,
2013-03-27 11:25:00,62.5,52.6,29.98,SW,225,3.1,3.6,70,0.00,,,0.00,WUHU216HW,2013-03-27 18:25:00,
2013-03-27 11:30:00,62.8,52.5,29.98,ESE,113,1.8,3.6,69,0.00,,,0.00,WUHU216HW,2013-03-27 18:30:00,
2013-03-27 11:35:00,63.0,52.7,29.98,SW,225,2.0,3.1,69,0.00,,,0.00,WUHU216HW,2013-03-27 18:35:00,
2013-03-27 11:40:00,63.2,52.5,29.98,SSW,203,1.8,2.0,68,0.00,,,0.00,WUHU216HW,2013-03-27 18:40:00,
2013-03-27 11:45:00,63.7,53.0,29.98,East,90,2.0,2.0,68,0.00,,,0.00,WUHU216HW,2013-03-27 18:45:00,
2013-03-27 11:50:00,63.7,52.6,29.98,ENE,68,3.6,3.6,67,0.00,,,0.00,WUHU216HW,2013-03-27 18:50:00,
2013-03-27 11:55:00,63.9,52.8,29.98,SE,135,1.3,3.6,67,0.00,,,0.00,WUHU216HW,2013-03-27 18:55:00,
2013-03-27 12:00:00,64.3,52.7,29.98,West,270,4.0,4.0,66,0.00,,,0.00,WUHU216HW,2013-03-27 19:00:00,
2013-03-27 12:05:00,64.3,52.2,29.98,WNW,293,4.0,4.0,65,0.00,,,0.00,WUHU216HW,2013-03-27 19:05:00,
2013-03-27 12:10:00,64.4,52.4,29.98,SW,225,4.5,4.5,65,0.00,,,0.00,WUHU216HW,2013-03-27 19:10:00,
2013-03-27 12:15:00,64.4,52.4,29.98,SW,225,1.3,4.5,65,0.00,,,0.00,WUHU216HW,2013-03-27 19:15:00,
2013-03-27 12:20:00,64.6,52.6,29.98,West,270,6.3,6.3,65,0.00,,,0.00,WUHU216HW,2013-03-27 19:20:00,
2013-03-27 12:25:00,64.8,52.3,29.97,WNW,293,2.7,6.3,64,0.00,,,0.00,WUHU216HW,2013-03-27 19:25:00,
2013-03-27 12:30:00,65.0,52.5,29.97,WSW,248,4.7,4.7,64,0.00,,,0.00,WUHU216HW,2013-03-27 19:30:00,
2013-03-27 12:35:00,65.3,52.4,29.97,West,270,1.3,5.6,63,0.00,,,0.00,WUHU216HW,2013-03-27 19:35:00,
2013-03-27 12:40:00,65.5,52.6,29.97,SW,225,4.9,5.6,63,0.00,,,0.00,WUHU216HW,2013-03-27 19:40:00,
2013-03-27 12:45:00,65.7,52.8,29.97,SW,225,3.6,4.9,63,0.00,,,0.00,WUHU216HW,2013-03-27 19:45:00,
2013-03-27 12:50:00,65.9,52.9,29.97,WSW,248,3.6,3.6,63,0.00,,,0.00,WUHU216HW,2013-03-27 19:50:00,
2013-03-27 12:55:00,66.2,53.3,29.97,SSE,158,3.1,3.6,63,0.00,,,0.00,WUHU216HW,2013-03-27 19:55:00,
2013-03-27 13:00:00,66.6,53.7,29.97,WSW,248,5.4,5.4,63,0.00,,,0.00,WUHU216HW,2013-03-27 20:00:00,
2013-03-27 13:05:00,66.6,53.2,29.97,NW,315,6.9,6.9,62,0.00,,,0.00,WUHU216HW,2013-03-27 20:05:00,
2013-03-27 13:10:00,66.6,53.2,29.97,West,270,6.3,6.9,62,0.00,,,0.00,WUHU216HW,2013-03-27 20:10:00,
2013-03-27 13:15:00,66.6,52.7,29.96,SW,225,2.7,6.9,61,0.00,,,0.00,WUHU216HW,2013-03-27 20:15:00,
2013-03-27 13:20:00,66.6,52.7,29.97,SSW,203,1.8,6.3,61,0.00,,,0.00,WUHU216HW,2013-03-27 20:20:00,
2013-03-27 13:25:00,66.6,52.7,29.97,SW,225,1.8,2.7,61,0.00,,,0.00,WUHU216HW,2013-03-27 20:25:00,
2013-03-27 13:30:00,66.8,52.9,29.97,WSW,248,1.8,3.4,61,0.00,,,0.00,WUHU216HW,2013-03-27 20:30:00,
2013-03-27 13:35:00,66.6,52.7,29.97,WSW,248,2.5,3.4,61,0.00,,,0.00,WUHU216HW,2013-03-27 20:35:00,
2013-03-27 13:40:00,66.6,52.7,29.97,WNW,293,4.0,4.0,61,0.00,,,0.00,WUHU216HW,2013-03-27 20:40:00,
2013-03-27 13:45:00,66.6,52.7,29.96,WSW,248,2.5,4.0,61,0.00,,,0.00,WUHU216HW,2013-03-27 20:45:00,
2013-03-27 13:50:00,66.8,52.9,29.96,West,270,4.7,4.7,61,0.00,,,0.00,WUHU216HW,2013-03-27 20:50:00,
2013-03-27 13:55:00,66.8,52.9,29.96,WSW,248,6.5,6.5,61,0.00,,,0.00,WUHU216HW,2013-03-27 20:55:00,
2013-03-27 14:00:00,67.0,53.1,29.96,WSW,248,3.6,6.5,61,0.00,,,0.00,WUHU216HW,2013-03-27 21:00:00,
2013-03-27 14:05:00,67.0,52.7,29.96,WNW,293,7.6,7.8,60,0.00,,,0.00,WUHU216HW,2013-03-27 21:05:00,
2013-03-27 14:10:00,66.8,52.5,29.96,SW,225,6.3,7.8,60,0.00,,,0.00,WUHU216HW,2013-03-27 21:10:00,
2013-03-27 14:15:00,67.0,53.1,29.96,West,270,2.9,7.6,61,0.00,,,0.00,WUHU216HW,2013-03-27 21:15:00,
2013-03-27 14:20:00,67.1,52.8,29.96,WNW,293,2.9,7.4,60,0.00,,,0.00,WUHU216HW,2013-03-27 21:20:00,
2013-03-27 14:25:00,67.1,52.8,29.96,SW,225,3.8,7.4,60,0.00,,,0.00,WUHU216HW,2013-03-27 21:25:00,
2013-03-27 14:30:00,67.3,53.0,29.96,WNW,293,5.1,5.1,60,0.00,,,0.00,WUHU216HW,2013-03-27 21:30:00,
2013-03-27 14:35:00,67.3,53.0,29.96,West,270,2.7,5.1,60,0.00,,,0.00,WUHU216HW,2013-03-27 21:35:00,
2013-03-27 14:40:00,67.1,52.8,29.96,WSW,248,3.4,7.6,60,0.00,,,0.00,WUHU216HW,2013-03-27 21:40:00,
2013-03-27 14:45:00,67.0,52.7,29.96,NW,315,3.1,7.6,60,0.00,,,0.00,WUHU216HW,2013-03-27 21:45:00,
2013-03-27 14:50:00,67.0,53.1,29.96,West,270,3.4,6.0,61,0.00,,,0.00,WUHU216HW,2013-03-27 21:50:00,
2013-03-27 14:55:00,67.1,53.3,29.96,West,270,5.8,5.8,61,0.00,,,0.00,WUHU216HW,2013-03-27 21:55:00,
2013-03-27 15:00:00,67.1,53.3,29.96,West,270,7.6,7.6,61,0.00,,,0.00,WUHU216HW,2013-03-27 22:00:00,
2013-03-27 15:05:00,67.0,53.1,29.96,WNW,293,8.1,8.1,61,0.00,,,0.00,WUHU216HW,2013-03-27 22:05:00,
2013-03-27 15:10:00,66.8,53.4,29.96,West,270,7.2,8.3,62,0.00,,,0.00,WUHU216HW,2013-03-27 22:10:00,
2013-03-27 15:15:00,66.6,53.2,29.96,NW,315,7.2,8.3,62,0.00,,,0.00,WUHU216HW,2013-03-27 22:15:00,
2013-03-27 15:20:00,66.6,53.2,29.96,WSW,248,6.0,7.2,62,0.00,,,0.00,WUHU216HW,2013-03-27 22:20:00,
2013-03-27 15:25:00,66.2,53.3,29.96,West,270,8.5,8.5,63,0.00,,,0.00,WUHU216HW,2013-03-27 22:25:00,
2013-03-27 15:30:00,66.1,53.1,29.96,WNW,293,9.8,9.8,63,0.00,,,0.00,WUHU216HW,2013-03-27 22:30:00,
2013-03-27 15:35:00,65.9,53.4,29.96,NW,315,9.4,9.8,64,0.00,,,0.00,WUHU216HW,2013-03-27 22:35:00,
2013-03-27 15:40:00,65.7,53.2,29.96,WNW,293,4.9,9.4,64,0.00,,,0.00,WUHU216HW,2013-03-27 22:40:00,
2013-03-27 15:45:00,65.7,53.6,29.96,WNW,293,10.1,10.1,65,0.00,,,0.00,WUHU216HW,2013-03-27 22:45:00,
2013-03-27 15:50:00,65.3,53.3,29.96,West,270,7.2,10.3,65,0.00,,,0.00,WUHU216HW,2013-03-27 22:50:00,
2013-03-27 15:55:00,65.5,53.4,29.96,WNW,293,4.0,10.3,65,0.00,,,0.00,WUHU216HW,2013-03-27 22:55:00,
2013-03-27 16:00:00,65.5,53.4,29.96,WSW,248,6.0,6.7,65,0.00,,,0.00,WUHU216HW,2013-03-27 23:00:00,
2013-03-27 16:05:00,65.7,53.6,29.96,WNW,293,6.0,6.9,65,0.00,,,0.00,WUHU216HW,2013-03-27 23:05:00,
2013-03-27 16:10:00,65.5,53.4,29.96,WNW,293,7.6,7.6,65,0.00,,,0.00,WUHU216HW,2013-03-27 23:10:00,
2013-03-27 16:15:00,65.9,53.7,29.96,WNW,293,6.3,7.6,65,0.00,,,0.00,WUHU216HW,2013-03-27 23:15:00,
2013-03-27 16:20:00,65.7,53.6,29.96,West,270,11.0,11.0,65,0.00,,,0.00,WUHU216HW,2013-03-27 23:20:00,
2013-03-27 16:25:00,65.9,53.7,29.96,NNW,338,6.7,11.0,65,0.00,,,0.00,WUHU216HW,2013-03-27 23:25:00,
2013-03-27 16:30:00,65.9,53.7,29.96,NW,315,9.2,11.0,65,0.00,,,0.00,WUHU216HW,2013-03-27 23:30:00,
2013-03-27 16:35:00,65.7,53.6,29.96,West,270,8.7,9.2,65,0.00,,,0.00,WUHU216HW,2013-03-27 23:35:00,
2013-03-27 16:40:00,65.5,53.4,29.96,WNW,293,8.5,8.7,65,0.00,,,0.00,WUHU216HW,2013-03-27 23:40:00,
2013-03-27 16:45:00,65.3,53.6,29.96,West,270,3.6,8.7,66,0.00,,,0.00,WUHU216HW,2013-03-27 23:45:00,
2013-03-27 16:50:00,65.3,53.6,29.96,West,270,6.7,8.5,66,0.00,,,0.00,WUHU216HW,2013-03-27 23:50:00,
2013-03-27 16:55:00,65.0,53.7,29.96,West,270,5.4,11.6,67,0.00,,,0.00,WUHU216HW,2013-03-27 23:55:00,
2013-03-27 17:00:00,64.8,53.6,29.96,NW,315,5.6,11.6,67,0.00,,,0.00,WUHU216HW,2013-03-28 00:00:00,
2013-03-27 17:05:00,64.8,53.6,29.96,West,270,5.1,10.1,67,0.00,,,0.00,WUHU216HW,2013-03-28 00:05:00,
2013-03-27 17:10:00,64.6,53.4,29.97,West,270,6.7,8.1,67,0.00,,,0.00,WUHU216HW,2013-03-28 00:10:00,
2013-03-27 17:15:00,64.4,53.6,29.96,West,270,8.9,8.9,68,0.00,,,0.00,WUHU216HW,2013-03-28 00:15:00,
2013-03-27 17:20:00,63.9,53.6,29.96,NW,315,6.3,8.9,69,0.00,,,0.00,WUHU216HW,2013-03-28 00:20:00,
2013-03-27 17:25:00,63.9,53.6,29.96,West,270,8.9,8.9,69,0.00,,,0.00,WUHU216HW,2013-03-28 00:25:00,
2013-03-27 17:30:00,63.7,53.8,29.96,WNW,293,6.0,8.9,70,0.00,,,0.00,WUHU216HW,2013-03-28 00:30:00,
2013-03-27 17:35:00,63.7,53.8,29.96,NNW,338,5.4,8.9,70,0.00,,,0.00,WUHU216HW,2013-03-28 00:35:00,
2013-03-27 17:40:00,63.7,53.8,29.96,NW,315,3.4,6.3,70,0.00,,,0.00,WUHU216HW,2013-03-28 00:40:00,
2013-03-27 17:45:00,63.7,53.8,29.96,West,270,8.1,8.1,70,0.00,,,0.00,WUHU216HW,2013-03-28 00:45:00,
2013-03-27 17:50:00,63.5,53.6,29.96,NNW,338,3.4,8.1,70,0.00,,,0.00,WUHU216HW,2013-03-28 00:50:00,
2013-03-27 17:56:00,63.2,53.3,29.97,North,0,5.6,8.1,70,0.00,,,0.00,WUHU216HW,2013-03-28 00:56:00,
2013-03-27 18:01:00,63.0,53.5,29.97,WNW,293,4.9,5.6,71,0.00,,,0.00,WUHU216HW,2013-03-28 01:01:00,
2013-03-27 18:06:00,62.6,53.1,29.97,NNW,338,4.0,5.6,71,0.00,,,0.00,WUHU216HW,2013-03-28 01:06:00,
2013-03-27 18:11:00,62.6,53.1,29.97,WNW,293,3.6,4.9,71,0.00,,,0.00,WUHU216HW,2013-03-28 01:11:00,
2013-03-27 18:16:00,62.5,53.3,29.97,North,0,3.4,4.5,72,0.00,,,0.00,WUHU216HW,2013-03-28 01:16:00,
2013-03-27 18:21:00,62.3,53.1,29.97,NNW,338,5.1,5.1,72,0.00,,,0.00,WUHU216HW,2013-03-28 01:21:00,
2013-03-27 18:26:00,62.1,53.4,29.97,NW,315,4.5,5.1,73,0.00,,,0.00,WUHU216HW,2013-03-28 01:26:00,
2013-03-27 18:31:00,61.9,53.2,29.97,WNW,293,8.5,8.5,73,0.00,,,0.00,WUHU216HW,2013-03-28 01:31:00,
2013-03-27 18:36:00,61.6,52.8,29.97,NW,315,6.7,8.5,73,0.00,,,0.00,WUHU216HW,2013-03-28 01:36:00,
2013-03-27 18:41:00,61.6,52.8,29.97,NNW,338,6.9,6.9,73,0.00,,,0.00,WUHU216HW,2013-03-28 01:41:00,
2013-03-27 18:46:00,61.4,52.7,29.97,NW,315,6.0,6.9,73,0.00,,,0.00,WUHU216HW,2013-03-28 01:46:00,
2013-03-27 18:51:00,61.4,52.7,29.97,WNW,293,5.1,6.9,73,0.00,,,0.00,WUHU216HW,2013-03-28 01:51:00,
2013-03-27 18:56:00,61.4,52.7,29.97,NW,315,2.5,6.0,73,0.00,,,0.00,WUHU216HW,2013-03-28 01:56:00,
2013-03-27 19:01:00,61.4,52.7,29.98,NW,315,5.8,6.0,73,0.00,,,0.00,WUHU216HW,2013-03-28 02:01:00,
2013-03-27 19:06:00,61.2,52.9,29.98,NW,315,4.7,6.5,74,0.00,,,0.00,WUHU216HW,2013-03-28 02:06:00,
2013-03-27 19:11:00,61.0,52.8,29.98,NNW,338,5.4,6.5,74,0.00,,,0.00,WUHU216HW,2013-03-28 02:11:00,
2013-03-27 19:16:00,60.8,52.9,29.97,WNW,293,3.6,5.4,75,0.00,,,0.00,WUHU216HW,2013-03-28 02:16:00,
2013-03-27 19:21:00,60.8,52.9,29.98,NW,315,5.4,6.9,75,0.00,,,0.00,WUHU216HW,2013-03-28 02:21:00,
2013-03-27 19:26:00,60.8,52.9,29.97,WNW,293,6.9,6.9,75,0.00,,,0.00,WUHU216HW,2013-03-28 02:26:00,
2013-03-27 19:31:00,60.7,52.7,29.98,NW,315,4.0,6.9,75,0.00,,,0.00,WUHU216HW,2013-03-28 02:31:00,
2013-03-27 19:36:00,60.5,52.6,29.98,WNW,293,4.7,6.9,75,0.00,,,0.00,WUHU216HW,2013-03-28 02:36:00,
2013-03-27 19:41:00,60.5,52.6,29.98,NW,315,3.8,4.7,75,0.00,,,0.00,WUHU216HW,2013-03-28 02:41:00,
2013-03-27 19:46:00,60.5,52.6,29.98,West,270,7.8,7.8,75,0.00,,,0.00,WUHU216HW,2013-03-28 02:46:00,
2013-03-27 19:51:00,60.5,52.6,29.98,NW,315,4.3,7.8,75,0.00,,,0.00,WUHU216HW,2013-03-28 02:51:00,
2013-03-27 19:56:00,60.5,52.6,29.98,West,270,3.4,7.8,75,0.00,,,0.00,WUHU216HW,2013-03-28 02:56:00,
2013-03-27 20:01:00,60.3,52.4,29.98,West,270,2.9,6.3,75,0.00,,,0.00,WUHU216HW,2013-03-28 03:01:00,
2013-03-27 20:06:00,60.3,52.4,29.98,WNW,293,6.9,6.9,75,0.00,,,0.00,WUHU216HW,2013-03-28 03:06:00,
2013-03-27 20:12:00,60.1,52.2,29.98,NW,315,9.4,9.4,75,0.00,,,0.00,WUHU216HW,2013-03-28 03:12:00,
2013-03-27 20:17:00,60.1,52.2,29.98,West,270,4.5,9.4,75,0.00,,,0.00,WUHU216HW,2013-03-28 03:17:00,
2013-03-27 20:22:00,59.9,52.0,29.98,NW,315,5.4,9.4,75,0.00,,,0.00,WUHU216HW,2013-03-28 03:22:00,
2013-03-27 20:27:00,59.9,52.0,29.98,WNW,293,7.4,7.4,75,0.00,,,0.00,WUHU216HW,2013-03-28 03:27:00,
2013-03-27 20:32:00,59.8,51.8,29.98,WNW,293,6.3,7.4,75,0.00,,,0.00,WUHU216HW,2013-03-28 03:32:00,
2013-03-27 20:37:00,59.8,51.8,29.98,West,270,4.0,7.4,75,0.00,,,0.00,WUHU216HW,2013-03-28 03:37:00,
2013-03-27 20:42:00,59.8,51.8,29.98,NNW,338,3.4,4.0,75,0.00,,,0.00,WUHU216HW,2013-03-28 03:42:00,
2013-03-27 20:47:00,59.8,51.8,29.99,West,270,4.0,4.0,75,0.00,,,0.00,WUHU216HW,2013-03-28 03:47:00,
2013-03-27 20:52:00,59.8,51.8,29.99,West,270,4.9,4.9,75,0.00,,,0.00,WUHU216HW,2013-03-28 03:52:00,
2013-03-27 20:57:00,59.6,51.7,29.99,WNW,293,2.9,4.9,75,0.00,,,0.00,WUHU216HW,2013-03-28 03:57:00,
2013-03-27 21:02:00,59.6,51.7,29.99,West,270,3.4,4.9,75,0.00,,,0.00,WUHU216HW,2013-03-28 04:02:00,
2013-03-27 21:07:00,59.6,51.7,29.99,West,270,1.8,3.4,75,0.00,,,0.00,WUHU216HW,2013-03-28 04:07:00,
2013-03-27 21:12:00,59.6,51.7,29.99,NNW,338,3.1,3.4,75,0.00,,,0.00,WUHU216HW,2013-03-28 04:12:00,
2013-03-27 21:17:00,59.6,51.7,29.99,West,270,3.8,3.8,75,0.00,,,0.00,WUHU216HW,2013-03-28 04:17:00,
2013-03-27 21:22:00,59.4,51.5,29.99,NW,315,4.0,4.0,75,0.00,,,0.00,WUHU216HW,2013-03-28 04:22:00,
2013-03-27 21:27:00,59.4,51.8,29.99,NNW,338,5.4,5.4,76,0.00,,,0.00,WUHU216HW,2013-03-28 04:27:00,
2013-03-27 21:32:00,59.2,51.7,30.00,NNW,338,2.7,5.4,76,0.00,,,0.00,WUHU216HW,2013-03-28 04:32:00,
2013-03-27 21:37:00,59.4,51.8,30.00,North,0,2.0,5.4,76,0.00,,,0.00,WUHU216HW,2013-03-28 04:37:00,
2013-03-27 21:42:00,59.4,51.5,30.00,NNW,338,3.1,3.4,75,0.00,,,0.00,WUHU216HW,2013-03-28 04:42:00,
2013-03-27 21:47:00,59.4,51.5,30.00,NW,315,2.2,3.1,75,0.00,,,0.00,WUHU216HW,2013-03-28 04:47:00,
2013-03-27 21:52:00,59.4,51.5,30.01,NW,315,0.4,2.2,75,0.00,,,0.00,WUHU216HW,2013-03-28 04:52:00,
2013-03-27 21:57:00,59.6,51.7,30.01,WSW,248,2.9,2.9,75,0.00,,,0.00,WUHU216HW,2013-03-28 04:57:00,
2013-03-27 22:02:00,59.6,51.7,30.01,WSW,248,0.7,2.9,75,0.00,,,0.00,WUHU216HW,2013-03-28 05:02:00,
2013-03-27 22:07:00,59.6,51.7,30.01,West,270,3.4,3.4,75,0.00,,,0.00,WUHU216HW,2013-03-28 05:07:00,
2013-03-27 22:12:00,59.6,51.7,30.01,WNW,293,2.2,3.4,75,0.00,,,0.00,WUHU216HW,2013-03-28 05:12:00,
2013-03-27 22:17:00,59.6,51.7,30.01,West,270,2.0,3.4,75,0.00,,,0.00,WUHU216HW,2013-03-28 05:17:00,
2013-03-27 22:22:00,59.4,51.5,30.01,WSW,248,1.8,3.4,75,0.00,,,0.00,WUHU216HW,2013-03-28 05:22:00,
2013-03-27 22:27:00,59.4,51.5,30.00,WNW,293,0.2,3.1,75,0.00,,,0.00,WUHU216HW,2013-03-28 05:27:00,
2013-03-27 22:32:00,59.4,51.5,30.01,WSW,248,0.4,0.9,75,0.00,,,0.00,WUHU216HW,2013-03-28 05:32:00,
2013-03-27 22:37:00,59.4,51.5,30.01,NW,315,0.0,0.9,75,0.00,,,0.00,WUHU216HW,2013-03-28 05:37:00,
2013-03-27 22:42:00,59.4,51.5,30.01,West,270,0.9,0.9,75,0.00,,,0.00,WUHU216HW,2013-03-28 05:42:00,
2013-03-27 22:47:00,59.4,51.5,30.01,WSW,248,0.7,1.1,75,0.00,,,0.00,WUHU216HW,2013-03-28 05:47:00,
2013-03-27 22:52:00,59.4,51.5,30.01,West,270,0.4,1.1,75,0.00,,,0.00,WUHU216HW,2013-03-28 05:52:00,
2013-03-27 22:57:00,59.4,51.8,30.01,NW,315,0.7,1.1,76,0.00,,,0.00,WUHU216HW,2013-03-28 05:57:00,
2013-03-27 23:02:00,59.2,51.7,30.01,West,270,2.0,2.2,76,0.00,,,0.00,WUHU216HW,2013-03-28 06:02:00,
2013-03-27 23:07:00,59.2,51.7,30.01,West,270,3.4,3.4,76,0.00,,,0.00,WUHU216HW,2013-03-28 06:07:00,
2013-03-27 23:13:00,59.0,51.5,30.01,NW,315,1.3,3.4,76,0.00,,,0.00,WUHU216HW,2013-03-28 06:13:00,
2013-03-27 23:18:00,59.0,51.5,30.01,West,270,3.4,3.4,76,0.00,,,0.00,WUHU216HW,2013-03-28 06:18:00,
2013-03-27 23:23:00,58.9,51.3,30.01,WNW,293,0.9,3.4,76,0.00,,,0.00,WUHU216HW,2013-03-28 06:23:00,
2013-03-27 23:28:00,58.9,51.7,30.01,West,270,2.5,5.4,77,0.00,,,0.00,WUHU216HW,2013-03-28 06:28:00,
2013-03-27 23:33:00,58.7,51.5,30.01,SW,225,3.4,5.4,77,0.00,,,0.00,WUHU216HW,2013-03-28 06:33:00,
2013-03-27 23:38:00,58.7,51.5,30.01,SSW,203,3.8,3.8,77,0.00,,,0.00,WUHU216HW,2013-03-28 06:38:00,
2013-03-27 23:43:00,58.7,51.5,30.01,WNW,293,4.0,4.0,77,0.00,,,0.00,WUHU216HW,2013-03-28 06:43:00,
2013-03-27 23:48:00,58.7,51.5,30.01,SW,225,1.8,4.0,77,0.00,,,0.00,WUHU216HW,2013-03-28 06:48:00,
2013-03-27 23:53:00,58.7,51.5,30.01,SW,225,1.1,1.8,77,0.00,,,0.00,WUHU216HW,2013-03-28 06:53:00,
2013-03-27 23:58:00,58.7,51.5,30.01,WSW,248,0.4,1.8,77,0.00,,,0.00,WUHU216HW,2013-03-28 06:58:00,